When you browse on this site, cookies collect data to enhance your experience and personalize the content and advertising you see.
Visit our Privacy Policy to learn more. By continuing to use the site, you agree to this use of cookies and data.
  • In Portugal
  • List of Countries
  • For 7 days
  • Water Temperature
  • Satellite Maps
  • Weather Map
  • Weather Widgets
  • user-avatar
    Login

    Hourly Weather Kriushino

    Today, 21 April, Sunday

    Time Temperature Precipitation Wind Pressure Humidity
    00:00 +4°C° 0.1 mm 3 mps 765 mmHg 70%
    01:00 +4°C° 0.1 mm 3 mps 765 mmHg 71%
    02:00 +3°C° 0 mm 3 mps 764 mmHg 81%
    03:00 +3°C° 0 mm 3 mps 764 mmHg 80%
    04:00 +3°C° 0 mm 3 mps 764 mmHg 80%
    05:00 +3°C° 0 mm 3 mps 764 mmHg 79%
    06:00 +4°C° 0 mm 4 mps 765 mmHg 74%
    07:00 +5°C° 0 mm 4 mps 765 mmHg 69%
    08:00 +6°C° 0 mm 4 mps 765 mmHg 62%
    09:00 +8°C° 0 mm 4 mps 765 mmHg 56%
    10:00 +10°C° 0 mm 4 mps 765 mmHg 50%
    11:00 +12°C° 0 mm 4 mps 765 mmHg 44%
    12:00 +13°C° 0 mm 3 mps 765 mmHg 41%
    13:00 +13°C° 0 mm 3 mps 765 mmHg 39%
    14:00 +14°C° 0 mm 3 mps 765 mmHg 36%
    15:00 +14°C° 0 mm 3 mps 765 mmHg 36%
    16:00 +14°C° 0 mm 3 mps 765 mmHg 37%
    17:00 +14°C° 0 mm 3 mps 765 mmHg 37%
    18:00 +13°C° 0 mm 2 mps 765 mmHg 43%
    19:00 +12°C° 0 mm 2 mps 765 mmHg 50%
    20:00 +9°C° 0 mm 2 mps 765 mmHg 56%
    21:00 +8°C° 0 mm 2 mps 765 mmHg 59%
    22:00 +8°C° 0 mm 2 mps 766 mmHg 62%
    23:00 +7°C° 0 mm 2 mps 766 mmHg 65%

    Tomorrow, 22 April, Monday

    Time Temperature Precipitation Wind Pressure Humidity
    00:00 +7°C° 0 mm 2 mps 766 mmHg 68%
    01:00 +6°C° 0 mm 2 mps 766 mmHg 70%
    02:00 +7°C° 0 mm 1 mps 766 mmHg 72%
    03:00 +7°C° 0 mm 1 mps 767 mmHg 74%
    04:00 +7°C° 0 mm 1 mps 767 mmHg 76%
    05:00 +6°C° 0 mm 1 mps 767 mmHg 78%
    06:00 +8°C° 0 mm 1 mps 767 mmHg 71%
    07:00 +10°C° 0 mm 1 mps 767 mmHg 65%
    08:00 +12°C° 0 mm 1 mps 767 mmHg 58%
    09:00 +14°C° 0 mm 2 mps 767 mmHg 51%
    10:00 +16°C° 0 mm 2 mps 767 mmHg 44%
    11:00 +18°C° 0 mm 2 mps 768 mmHg 36%
    12:00 +18°C° 0 mm 2 mps 767 mmHg 35%
    13:00 +19°C° 0 mm 2 mps 767 mmHg 33%
    14:00 +19°C° 0 mm 2 mps 767 mmHg 32%
    15:00 +19°C° 0 mm 2 mps 767 mmHg 33%
    16:00 +19°C° 0 mm 2 mps 767 mmHg 34%
    17:00 +19°C° 0 mm 2 mps 767 mmHg 36%
    18:00 +17°C° 0 mm 2 mps 767 mmHg 42%
    19:00 +15°C° 0 mm 2 mps 767 mmHg 49%
    20:00 +13°C° 0 mm 2 mps 767 mmHg 55%
    21:00 +12°C° 0 mm 2 mps 768 mmHg 57%
    22:00 +10°C° 0 mm 2 mps 768 mmHg 59%
    23:00 +10°C° 0 mm 2 mps 768 mmHg 61%

    Day after tomorrow, 23 April, Tuesday

    Time Temperature Precipitation Wind Pressure Humidity
    00:00 +9°C° 0 mm 2 mps 768 mmHg 62%
    01:00 +9°C° 0 mm 2 mps 769 mmHg 62%
    02:00 +8°C° 0 mm 2 mps 769 mmHg 63%
    03:00 +8°C° 0 mm 2 mps 769 mmHg 64%
    04:00 +8°C° 0 mm 1 mps 769 mmHg 65%
    05:00 +8°C° 0 mm 1 mps 769 mmHg 66%
    06:00 +10°C° 0 mm 1 mps 769 mmHg 61%
    07:00 +12°C° 0 mm 1 mps 770 mmHg 55%
    08:00 +14°C° 0 mm 1 mps 770 mmHg 49%
    09:00 +15°C° 0 mm 1 mps 770 mmHg 44%
    10:00 +18°C° 0 mm 1 mps 770 mmHg 39%
    11:00 +19°C° 0 mm 1 mps 770 mmHg 33%
    12:00 +20°C° 0 mm 1 mps 769 mmHg 32%
    13:00 +20°C° 0 mm 1 mps 769 mmHg 31%
    14:00 +21°C° 0 mm 1 mps 769 mmHg 30%
    15:00 +21°C° 0 mm 1 mps 769 mmHg 30%
    16:00 +21°C° 0 mm 1 mps 768 mmHg 31%
    17:00 +18°C° 0 mm 0 mps 768 mmHg 31%
    18:00 +18°C° 0 mm 1 mps 768 mmHg 36%
    19:00 +16°C° 0 mm 1 mps 768 mmHg 42%
    20:00 +14°C° 0 mm 1 mps 768 mmHg 47%
    21:00 +13°C° 0 mm 1 mps 768 mmHg 50%
    22:00 +12°C° 0 mm 1 mps 769 mmHg 52%
    23:00 +11°C° 0 mm 1 mps 769 mmHg 55%

    24 April, Wednesday

    Time Temperature Precipitation Wind Pressure Humidity
    00:00 +11°C° 0 mm 1 mps 769 mmHg 57%
    01:00 +10°C° 0 mm 1 mps 769 mmHg 59%
    02:00 +10°C° 0 mm 1 mps 769 mmHg 61%
    03:00 +10°C° 0 mm 1 mps 769 mmHg 62%
    04:00 +8°C° 0 mm 0 mps 769 mmHg 63%
    05:00 +8°C° 0 mm 0 mps 769 mmHg 64%
    06:00 +11°C° 0 mm 1 mps 769 mmHg 59%
    07:00 +13°C° 0 mm 1 mps 769 mmHg 54%
    08:00 +15°C° 0 mm 1 mps 769 mmHg 49%
    09:00 +16°C° 0 mm 2 mps 769 mmHg 44%
    10:00 +18°C° 0 mm 2 mps 769 mmHg 39%
    11:00 +19°C° 0 mm 3 mps 769 mmHg 34%
    12:00 +20°C° 0 mm 3 mps 768 mmHg 33%
    13:00 +20°C° 0 mm 3 mps 768 mmHg 32%
    14:00 +21°C° 0 mm 3 mps 768 mmHg 32%
    15:00 +20°C° 0 mm 3 mps 767 mmHg 33%
    16:00 +20°C° 0 mm 3 mps 767 mmHg 34%
    17:00 +20°C° 0 mm 3 mps 767 mmHg 35%
    18:00 +18°C° 0 mm 3 mps 767 mmHg 41%
    19:00 +16°C° 0 mm 2 mps 767 mmHg 47%
    20:00 +15°C° 0 mm 2 mps 767 mmHg 54%
    21:00 +14°C° 0 mm 2 mps 767 mmHg 57%
    22:00 +13°C° 0 mm 2 mps 767 mmHg 60%
    23:00 +12°C° 0 mm 2 mps 767 mmHg 62%

    25 April, Thursday

    Time Temperature Precipitation Wind Pressure Humidity
    00:00 +12°C° 0 mm 2 mps 767 mmHg 64%
    01:00 +10°C° 0 mm 2 mps 767 mmHg 66%
    02:00 +10°C° 0 mm 2 mps 767 mmHg 68%
    03:00 +9°C° 0 mm 3 mps 767 mmHg 69%
    04:00 +9°C° 0 mm 3 mps 766 mmHg 70%
    05:00 +9°C° 0 mm 3 mps 766 mmHg 72%
    06:00 +10°C° 0 mm 3 mps 766 mmHg 66%
    07:00 +12°C° 0 mm 4 mps 766 mmHg 60%
    08:00 +14°C° 0 mm 4 mps 766 mmHg 55%
    09:00 +16°C° 0 mm 5 mps 765 mmHg 49%
    10:00 +17°C° 0 mm 5 mps 765 mmHg 43%
    11:00 +20°C° 0 mm 6 mps 765 mmHg 38%
    12:00 +20°C° 0 mm 6 mps 764 mmHg 37%
    13:00 +21°C° 0 mm 6 mps 764 mmHg 36%
    14:00 +21°C° 0 mm 6 mps 764 mmHg 35%
    15:00 +21°C° 0 mm 5 mps 763 mmHg 37%
    16:00 +20°C° 0 mm 5 mps 763 mmHg 39%
    17:00 +20°C° 0 mm 4 mps 762 mmHg 41%
    18:00 +18°C° 0 mm 4 mps 762 mmHg 47%
    19:00 +17°C° 0 mm 3 mps 762 mmHg 52%
    20:00 +14°C° 0 mm 3 mps 762 mmHg 58%
    21:00 +14°C° 0 mm 3 mps 762 mmHg 60%
    22:00 +13°C° 0 mm 3 mps 761 mmHg 62%
    23:00 +12°C° 0 mm 3 mps 761 mmHg 65%

    26 April, Friday

    Time Temperature Precipitation Wind Pressure Humidity
    00:00 +12°C° 0 mm 3 mps 761 mmHg 67%
    01:00 +11°C° 0 mm 3 mps 761 mmHg 69%
    02:00 +11°C° 0 mm 3 mps 761 mmHg 71%
    03:00 +11°C° 0 mm 3 mps 760 mmHg 73%
    04:00 +10°C° 0 mm 3 mps 760 mmHg 74%
    05:00 +10°C° 0 mm 3 mps 760 mmHg 76%
    06:00 +11°C° 0 mm 3 mps 759 mmHg 71%
    07:00 +13°C° 0 mm 3 mps 759 mmHg 66%
    08:00 +15°C° 0 mm 4 mps 759 mmHg 61%
    09:00 +17°C° 0 mm 4 mps 758 mmHg 56%
    10:00 +19°C° 0 mm 4 mps 758 mmHg 51%
    11:00 +21°C° 0 mm 4 mps 758 mmHg 47%
    12:00 +21°C° 0 mm 4 mps 757 mmHg 45%
    13:00 +22°C° 0 mm 4 mps 757 mmHg 44%
    14:00 +23°C° 0 mm 4 mps 756 mmHg 42%
    15:00 +23°C° 0 mm 4 mps 756 mmHg 43%
    16:00 +24°C° 0 mm 3 mps 755 mmHg 44%
    17:00 +24°C° 0 mm 3 mps 755 mmHg 45%
    18:00 +21°C° 0 mm 2 mps 755 mmHg 52%
    19:00 +19°C° 0 mm 2 mps 755 mmHg 59%
    20:00 +17°C° 0 mm 2 mps 755 mmHg 66%
    21:00 +16°C° 0 mm 1 mps 754 mmHg 69%
    22:00 +16°C° 0 mm 1 mps 754 mmHg 73%
    23:00 +15°C° 0 mm 1 mps 754 mmHg 76%
    Show more